Weather History for Meadow Lake, CO

Change the Weather History Date:

Sunday, March 23, 2014

  Actual Average (KCOS) Record (KCOS)
Temperature  
Mean Temperature 30 °F 41 °F  
Max Temperature 44 °F 54 °F 76 °F (1967)
Min Temperature 17 °F 28 °F -5 °F (1898)
Degree Days  
Heating Degree Days 34 24  
Month to date heating degree days 619  
Since 1 July heating degree days 5182  
Cooling Degree Days 0 0  
Month to date cooling degree days 0  
Year to date cooling degree days 0  
Moisture  
Dew Point 22 °F    
Average Humidity 80    
Maximum Humidity 100    
Minimum Humidity 37    
Precipitation  
Precipitation 0.00 in 0.04 in 0.60 in (1919)
Month to date precipitation 0.72  
Year to date precipitation 1.38  
Snow  
Snow 0.00 in 0.30 in 5.30 in (2010)
Month to date snowfall 6.0  
Since 1 July snowfall 30.0  
Snow Depth -    
Sea Level Pressure  
Sea Level Pressure 30.13 in    
Wind  
Wind Speed 9 mph (SW)    
Max Wind Speed 15 mph    
Max Gust Speed 17 mph    
Visibility 5 miles    
Events Fog , Snow    
T = Trace of Precipitation, MM = Missing Value Source: NWS Daily Summary

Daily Weather History Graph

Daily Weather History Graph

Search for Another Location

Airport:

Trip Planner

Search our weather history database for the weather conditions in past years. The results will help you decide how hot, cold, wet, or windy it might be!

Date:

Astronomy

Mar. 23, 2014 Rise Set
Actual Time 6:56 AM MDT 7:13 PM MDT
Civil Twilight 6:30 AM MDT 7:39 PM MDT
Nautical Twilight 5:59 AM MDT 8:11 PM MDT
Astronomical Twilight 5:27 AM MDT 8:43 PM MDT
Moon 1:29 AM MDT (3/23) 11:43 AM MDT (3/23)
Length of Visible Light 13h 09m
Length of Day
12h 16m
Waning Gibbous, 54% of the Moon is Illuminated
Mar 23
Waning Gibbous
Mar 23
Last Quarter
Mar 30
New
Apr 7
First Quarter
Apr 15
Full

Hourly Weather History & Observations

Time (MDT) Temp. Windchill Dew Point Humidity Pressure Visibility Wind Dir Wind Speed Gust Speed Precip Events Conditions
12:10 AM 23.0 °F 15.8 °F 22.5 °F 98% 30.28 in 10.0 mi SSW 5.8 mph - N/A   Overcast
12:30 AM 23.0 °F 12.4 °F 22.6 °F 99% 30.28 in 0.5 mi SSW 10.4 mph - N/A Fog Light Freezing Fog
12:50 AM 21.2 °F 9.5 °F 21.0 °F 99% 30.27 in 0.2 mi South 11.5 mph - N/A Snow Light Snow
1:10 AM 20.3 °F 8.3 °F 20.1 °F 99% 30.27 in 0.2 mi SSW 11.5 mph - N/A Snow Light Snow
1:30 AM 19.4 °F 10.4 °F 19.4 °F 100% 30.28 in 0.2 mi SSW 6.9 mph - N/A Snow Light Snow
1:50 AM 19.0 °F 5.0 °F 18.5 °F 98% 30.27 in 0.2 mi SW 15.0 mph - N/A Snow Heavy Snow
2:10 AM 18.9 °F 8.8 °F 18.5 °F 98% 30.27 in 0.2 mi SSW 8.1 mph - N/A Snow Light Snow
2:30 AM 18.9 °F 8.0 °F 18.3 °F 98% 30.26 in 0.2 mi SW 9.2 mph - N/A Snow Light Snow
2:50 AM 18.9 °F 7.2 °F 18.3 °F 98% 30.25 in 0.2 mi SSW 10.4 mph - N/A Snow Heavy Snow
3:10 AM 18.9 °F 9.8 °F 18.1 °F 97% 30.24 in 0.2 mi SW 6.9 mph - N/A Snow Light Snow
3:30 AM 18.9 °F 8.0 °F 18.1 °F 97% 30.23 in 0.2 mi SW 9.2 mph - N/A Snow Light Snow
3:50 AM 18.7 °F 8.6 °F 18.0 °F 97% 30.23 in 0.2 mi SW 8.1 mph - N/A Snow Light Snow
4:10 AM 19.0 °F 7.5 °F 18.3 °F 97% 30.22 in 0.2 mi SSW 10.4 mph - N/A Fog Light Freezing Fog
4:30 AM 19.0 °F 7.5 °F 18.3 °F 97% 30.22 in 0.2 mi SSW 10.4 mph 17.3 mph N/A Snow Light Snow
4:50 AM 18.5 °F 7.5 °F 18.0 °F 98% 30.22 in 0.2 mi SSW 9.2 mph - N/A Snow Light Snow
5:10 AM 18.5 °F 8.4 °F 17.6 °F 96% 30.21 in 0.2 mi SSW 8.1 mph 16.1 mph N/A Snow Light Snow
5:30 AM 18.5 °F 7.5 °F 17.6 °F 96% 30.21 in 0.2 mi SSW 9.2 mph - N/A Snow Light Snow
5:50 AM 18.3 °F 8.2 °F 17.4 °F 96% 30.21 in 0.2 mi SW 8.1 mph - N/A Snow Heavy Snow
6:10 AM 18.1 °F 7.9 °F 17.2 °F 96% 30.21 in 0.2 mi SSW 8.1 mph - N/A Snow Light Snow
6:30 AM 18.0 °F 6.9 °F 16.7 °F 95% 30.20 in 0.2 mi SW 9.2 mph - N/A Fog Light Freezing Fog
6:50 AM 17.6 °F 6.4 °F 16.7 °F 96% 30.20 in 0.2 mi SW 9.2 mph - N/A Snow Light Snow
7:10 AM 17.6 °F 7.3 °F 16.7 °F 96% 30.19 in 0.2 mi SW 8.1 mph - N/A Fog Light Freezing Fog
7:30 AM 17.6 °F 5.7 °F 16.5 °F 96% 30.19 in 0.2 mi SW 10.4 mph - N/A Fog Light Freezing Fog
7:50 AM 18.1 °F 7.1 °F 16.9 °F 95% 30.19 in 0.2 mi SW 9.2 mph - N/A Fog Light Freezing Fog
8:10 AM 18.7 °F 10.6 °F 17.8 °F 96% 30.19 in 0.2 mi SW 5.8 mph - N/A Fog Light Freezing Fog
8:30 AM 19.4 °F 8.6 °F 18.5 °F 96% 30.19 in 0.2 mi SW 9.2 mph - N/A Fog Light Freezing Fog
8:50 AM 19.8 °F 9.9 °F 18.5 °F 95% 30.18 in 0.2 mi WSW 8.1 mph - N/A Fog Light Freezing Fog
9:10 AM 20.7 °F 10.2 °F 19.6 °F 96% 30.18 in 0.2 mi WSW 9.2 mph - N/A Fog Light Freezing Fog
9:30 AM 21.7 °F 11.5 °F 20.7 °F 96% 30.17 in 0.2 mi SW 9.2 mph - N/A Fog Light Freezing Fog
9:50 AM 23.2 °F 17.2 °F 22.1 °F 96% 30.17 in 0.5 mi WSW 4.6 mph - N/A Fog Light Freezing Fog
10:10 AM 23.5 °F 16.4 °F 21.9 °F 94% 30.17 in 0.5 mi WSW 5.8 mph - N/A Fog Light Freezing Fog
10:30 AM 24.8 °F 16.9 °F 22.5 °F 91% 30.16 in 0.5 mi SW 6.9 mph - N/A Fog Light Freezing Fog
10:50 AM 26.1 °F 17.6 °F 23.2 °F 89% 30.15 in 1.2 mi WSW 8.1 mph - N/A   Overcast
11:10 AM 27.0 °F 18.7 °F 23.5 °F 87% 30.16 in 1.2 mi SW 8.1 mph - N/A   Overcast
11:30 AM 27.3 °F 19.1 °F 23.5 °F 86% 30.15 in 0.5 mi SW 8.1 mph - N/A Fog Light Freezing Fog
11:50 AM 27.5 °F 18.0 °F 23.9 °F 86% 30.15 in 1.0 mi SSW 10.4 mph - N/A   Overcast
12:10 PM 28.0 °F 20.8 °F 24.8 °F 88% 30.14 in 0.8 mi SSW 6.9 mph - N/A   Overcast
12:30 PM 28.6 °F 21.5 °F 25.5 °F 88% 30.13 in 1.8 mi SSW 6.9 mph - N/A   Overcast
12:50 PM 29.8 °F 23.0 °F 26.8 °F 88% 30.12 in 1.0 mi SSW 6.9 mph - N/A   Overcast
1:10 PM 31.6 °F 26.0 °F 28.9 °F 90% 30.10 in 1.2 mi South 5.8 mph - N/A   Overcast
1:30 PM 33.3 °F 27.9 °F 30.4 °F 89% 30.10 in 4.0 mi SW 5.8 mph - N/A   Overcast
1:50 PM 34.3 °F 31.4 °F 29.7 °F 83% 30.08 in 10.0 mi South 3.5 mph - N/A   Scattered Clouds
2:10 PM 36.5 °F 32.7 °F 30.7 °F 80% 30.07 in 10.0 mi SW 4.6 mph - N/A   Clear
2:30 PM 38.5 °F 34.1 °F 30.4 °F 73% 30.06 in 10.0 mi South 5.8 mph - N/A   Clear
2:50 PM 40.3 °F 37.1 °F 31.3 °F 70% 30.05 in 10.0 mi SSW 4.6 mph - N/A   Clear
3:10 PM 41.2 °F 35.5 °F 30.7 °F 66% 30.04 in 10.0 mi SSW 9.2 mph - N/A   Clear
3:30 PM 41.7 °F 35.6 °F 31.6 °F 67% 30.04 in 10.0 mi SSW 10.4 mph - N/A   Clear
3:50 PM 42.6 °F 36.3 °F 31.5 °F 65% 30.03 in 10.0 mi SW 11.5 mph - N/A   Clear
4:10 PM 42.4 °F 36.1 °F 32.0 °F 67% 30.02 in 10.0 mi SW 11.5 mph - N/A   Clear
4:30 PM 42.8 °F 36.2 °F 32.0 °F 66% 30.02 in 10.0 mi SW 12.7 mph - N/A   Clear
4:50 PM 43.0 °F 36.4 °F 31.1 °F 63% 30.02 in 10.0 mi SW 12.7 mph - N/A   Clear
5:10 PM 44.2 °F 39.2 °F 30.7 °F 59% 30.01 in 10.0 mi SW 9.2 mph - N/A   Clear
5:30 PM 44.6 °F 38.4 °F 30.0 °F 57% 30.02 in 10.0 mi SW 12.7 mph - N/A   Clear
5:50 PM 43.9 °F 37.9 °F 28.9 °F 56% 30.02 in 10.0 mi SW 11.5 mph - N/A   Clear
6:10 PM 42.6 °F 36.3 °F 27.3 °F 55% 30.02 in 10.0 mi SW 11.5 mph - N/A   Clear
6:30 PM 41.7 °F 36.1 °F 27.9 °F 58% 30.02 in 10.0 mi WSW 9.2 mph - N/A   Clear
6:50 PM 39.4 °F 33.8 °F 28.2 °F 64% 30.02 in 10.0 mi West 8.1 mph - N/A   Clear
7:10 PM 37.2 °F 30.6 °F 27.5 °F 68% 30.03 in 10.0 mi WSW 9.2 mph - N/A   Clear
7:30 PM 34.9 °F 28.3 °F 27.1 °F 73% 30.03 in 10.0 mi West 8.1 mph - N/A   Clear
7:50 PM 33.3 °F 26.4 °F 26.6 °F 77% 30.04 in 10.0 mi WNW 8.1 mph - N/A   Clear
8:10 PM 32.2 °F 25.8 °F 25.9 °F 78% 30.05 in 10.0 mi WNW 6.9 mph - N/A   Clear
8:30 PM 33.8 °F 27.7 °F 23.7 °F 67% 30.05 in 10.0 mi West 6.9 mph - N/A   Clear
8:50 PM 34.5 °F 27.9 °F 15.8 °F 46% 30.06 in 10.0 mi WNW 8.1 mph - N/A   Clear
9:10 PM 35.1 °F 30.1 °F 11.3 °F 37% 30.06 in 10.0 mi West 5.8 mph - N/A   Clear
9:30 PM 36.1 °F 29.9 °F 12.0 °F 37% 30.06 in 10.0 mi West 8.1 mph - N/A   Clear
9:50 PM 34.9 °F 29.0 °F 12.2 °F 39% 30.06 in 10.0 mi West 6.9 mph - N/A   Clear
10:10 PM 32.7 °F 29.6 °F 13.5 °F 45% 30.06 in 10.0 mi WNW 3.5 mph - N/A   Clear
10:30 PM 32.4 °F 29.1 °F 14.7 °F 48% 30.06 in 10.0 mi West 3.5 mph - N/A   Clear
10:50 PM 30.9 °F 26.2 °F 14.4 °F 50% 30.07 in 10.0 mi WNW 4.6 mph - N/A   Clear
11:10 PM 28.9 °F 22.8 °F 16.3 °F 59% 30.07 in 10.0 mi North 5.8 mph - N/A   Clear
11:30 PM 33.3 °F 26.4 °F 12.9 °F 43% 30.07 in 10.0 mi NW 8.1 mph - N/A   Clear
11:50 PM 32.0 °F 24.2 °F 13.1 °F 46% 30.07 in 10.0 mi NW 9.2 mph - N/A   Clear